Location: Mat�lon
(46.2791°N, 7.1028°E)
Time: 06:19:55
(UTC+00:00)

NOSS 2-2 (C) - Pass Details

Date: 18 September 2020
Orbit: 468 x 1740 km, 63.3° (Epoch: 19 October)

Event Time Altitude Azimuth Distance (km) Brightness Sun altitude
Rises 18:14:33 0° 190° (S) 2,521 6.7 -7.4°
Reaches altitude 10° 18:16:51 10° 178° (S) 1,622 5.6 -7.8°
Maximum altitude 18:19:50 27° 118° (ESE) 945 4.0 -8.3°
Drops below altitude 10° 18:23:01 10° 59° (ENE) 1,731 5.4 -8.8°
Sets 18:25:33 0° 47° (NE) 2,733 6.5 -9.2°
